weather.gov     
National Weather Service

Regional Weather Roundup
NWS Homepage
This page is being discontinued on March 12, 2014.
The same data is available at this site. Please update your bookmarks.
Thank you, and we apologize for the inconvenience.
Please send an email to SR-SRH.Webmaster@noaa.gov with any concerns.


Current Version
Previous Version:    01  02  03  04  05  06  07  08  09  10  11  12  13  14  15  16  17  18  19  20  21  22  23  24  25  26  27  28  29  30  
   31  32  33  34  35  36  37  38  39  40  41  42  43  44  45  46  47  48  49  50  51  52  53  54  
[Printable]
357
ASUS43 KFGF 230131
RWRFGF
PRAIRIE TO PINES  WEATHER ROUNDUP
NATIONAL WEATHER SERVICE EASTERN NORTH DAKOTA/GRAND FORKS ND
800 PM CDT FRI AUG 22 2014

 **SATELLITE DATA USED TO AUGMENT SKY COVER AT AUTOMATED STATIONS**
 *****  WEATHER ACROSS EASTERN NORTH DAKOTA  *****

CITY           SKY/WX    TMP DP  RH WIND       PRES   REMARKS
GRAND FORKS    CLOUDY    69  63  81 N12       30.05R
GRAND FRKS AFB CLOUDY    69  65  88 NE8       30.07R
GRAND FRKS NWS   N/A     61 N/A N/A N3          N/A
DEVILS LAKE    CLOUDY    66  55  68 NE10      30.09S
FARGO          CLOUDY    70  66  87 N9        30.02S
WAHPETON ARPT  PTCLDY    70  63  78 N8        30.02S
$$

 ***** WEATHER ACROSS CENTRAL AND WESTERN NORTH DAKOTA  *****

CITY           SKY/WX    TMP DP  RH WIND       PRES   REMARKS
BISMARCK       CLOUDY    68  65  90 NE10      30.05S
MINOT          CLOUDY    64  59  83 N7        30.11R
JAMESTOWN      CLOUDY    69  64  84 NE10      30.05S
MINOT AFB      CLOUDY    65  60  83 NE10      30.11R
GARRISON         N/A     65  60  84 NE8       30.10R
WILLISTON      CLOUDY    66  54  65 NE14      30.13R
DICKINSON      CLOUDY    66  61  84 NE14      30.07R
HETTINGER      CLOUDY    70  61  73 E7        30.05S
$$

 *****  OTHER AIRPORT OBSERVATIONS IN OUR AREA  *****

CITY           SKY/WX    TMP DP  RH WIND       PRES   REMARKS
WALHALLA         N/A     64  63  94 N15       30.11R
GRAFTON AIRPOR CLOUDY    66  61  82 N13       30.07R
VALLEY CITY AR MOCLDY    66  66 100 N8        30.06S
CANDO          CLOUDY    64  59  82 NE7       30.13R
CAVALIER APRT  MOCLDY    66  59  77 N13       30.09R
GWINNER        PTCLDY    72  68  88 NE10      30.04R
SHEYENNE NWR     N/A     71  65  82 N7        29.95S
ROLLA          CLOUDY    61  61 100 NE10      30.16R
 ***** THE ABOVE OBSERVATIONS ARE NON NWS ARE NOT QUALITY
       CONTROLLED AND MAY MIS-REPORT RAIN FOR SNOW...
$$

  *****  WEATHER ACROSS NORTHERN MINNESOTA  *****

CITY           SKY/WX    TMP DP  RH WIND       PRES   REMARKS
FLAG ISLAND    MOCLDY    72  63  73 N3        30.04S
WARROAD        PTCLDY    70  64  83 N3        30.05S
ROSEAU         PTCLDY    68  63  83 N6        30.05S
HALLOCK        CLOUDY    66  63  88 N12       30.06S
THF RVR FALLS  CLOUDY    70  66  88 NW12      30.04R
BAUDETTE       MOCLDY    70  66  87 N6        30.04R
WASKISH        CLOUDY    72  68  88 CALM      30.03S
CROOKSTON      CLOUDY    66  66 100 N10       30.05R
$$
  *****  WEATHER ACROSS CENTRAL AND WEST MINNESOTA  *****

CITY           SKY/WX    TMP DP  RH WIND       PRES   REMARKS
FOSSTON        CLOUDY    70  66  88 NW6       30.03S
BEMIDJI        PTCLDY    68  67  98 CALM      30.02S
PARK RAPIDS    PTCLDY    72  69  90 NW7       30.02S
ELBOW LAKE     FAIR      72  68  87 N7        30.01S
WADENA         MOCLDY    72  68  88 NW6       30.02S
DETROIT LAKES  CLOUDY    70  66  88 NW5       30.05S
MOORHEAD       CLOUDY    70  70 100 N7        30.04R
FERGUS FALLS   PTCLDY    72  64  78 N6        30.01R
MORRIS MN      CLOUDY    73  70  88 N7        30.00R
STAPLES        MOCLDY    73  68  83 N3        30.01S
$$
  *****  WEATHER ELSEWHERE ACROSS MINNESOTA  *****

CITY           SKY/WX    TMP DP  RH WIND       PRES   REMARKS
DULUTH         FOG       62  60  93 E6        30.05R VSB 1/2
INTRNTL FALLS  PTCLDY    69  65  86 NE3       30.03R
ELY            MOCLDY    68  64  88 E5        30.04S
CLOQUET        CLOUDY    63  61  94 E6        30.04S
WHEATON        MOCLDY    70  66  88 N5        30.02S
BRAINERD       MOCLDY    72  68  87 CALM      30.01R
HIBBING        CLOUDY    72  66  81 CALM      30.03R
ALEXANDRIA     MOCLDY    76  69  79 N7        30.03R
SAINT CLOUD    CLEAR     75  68  78 CALM      30.00R
MINNEAPOLIS    MOCLDY    75  67  76 VRB7      29.99R
$$

  *****  WEATHER ACROSS SOUTH DAKOTA  *****

CITY           SKY/WX    TMP DP  RH WIND       PRES   REMARKS
SIOUX FALLS    MOCLDY    80  69  69 E9        29.96R
BROOKINGS      NOT AVBL
WATERTOWN      MOCLDY    72  69  90 NE7       29.98F
HURON          MOCLDY    76  70  82 NE8       29.94F
SISSETON         N/A     74  70  87 NE6       30.00S
ABERDEEN       PTCLDY    74  68  81 NE8       30.00S
MITCHELL       PTCLDY    79  71  76 E5        29.94F
PIERRE         MOCLDY    74  65  73 NE14      29.94F
MOBRIDGE       PTCLDY    72  64  76 N9        29.98F
RAPID CITY     MOCLDY    73  63  70 CALM      30.00F
$$

  *****  SOME WEATHER IN NEARBY STATES *****

CITY           SKY/WX    TMP DP  RH WIND       PRES   REMARKS
GLASGOW MT     CLOUDY    64  54  69 NE17      30.09S
GREAT FALLS MT LGT RAIN  57  52  82 N12       30.13R
CHEYENNE WY    LGT RAIN  60  57  89 S15G25    30.08F
SCOTTSBLUFF NE CLOUDY    66  63  90 E12       30.03S
OMAHA NE       CLOUDY    76  74  93 N6        29.92R
DES MOINES IA  CLOUDY    82  74  76 CALM      29.93R
DAVENPORT IA   PTCLDY    80  73  79 SW5       29.95R
CHICAGO IL     MOCLDY    82  71  69 N5        29.95R
EAU CLAIRE WI  CLEAR     76  71  85 N8        29.97R
LA CROSSE WI   PTCLDY    81  73  76 N7        29.93R
$$

  *****  SOME NATIONAL WEATHER *****

CITY           SKY/WX    TMP DP  RH WIND       PRES   REMARKS
LA GUARDIA NY  CLOUDY    71  59  65 E8        30.04R
RALEIGH NC     MOCLDY    77  73  87 CALM      29.96R
ATLANTA GA     PTCLDY    87  70  56 W3        30.02F HX  92
NEW ORLEANS LA PTCLDY    86  67  52 W5        30.01S
OKLAHOMA CITY  CLEAR     92  61  35 SE14      29.90S HX  92
ALBUQUERQUE NM LGT RAIN  68  55  63 W28       30.19R
SALT LAKE CITY RAIN      61  56  83 N15       30.00R
LOS ANGELES CA PTSUNNY   72  63  73 W13       29.93S
BOISE ID       SUNNY     80  32  17 NW10      29.86R
SEATTLE WA     MOSUNNY   74  51  44 NW8       30.07S
$$

*** WEATHER ACROSS MANITOBA...SASKATCHEWAN AND ONTARIO ***
                ***ONTARIO***

CITY           SKY/WX    TMP DP  RH WIND       PRES   REMARKS
GERALDTON      MOCLDY    68  64  88 CALM      30.05S
THUNDER BAY    MOCLDY    66  63  88 NE5       30.05R
SIOUX LOOKOUT  MOCLDY    70  64  83 N3        30.05S
TORONTO        MOCLDY    70  64  83 SE5       30.02R
BIG TROUT LK   CLOUDY    55  50  82 N9        30.13R
PICKLE LAKE    MOCLDY    72  59  64 SW2       30.06R
DRYDEN         CLOUDY    70  61  73 N2        30.06R
KENORA         CLOUDY    70  63  78 NW5       30.07R
$$
                *** MANITOBA***

CITY           SKY/WX    TMP DP  RH WIND       PRES   REMARKS
BRANDON        LGT RAIN  61  55  82 NE13G18   30.18R
DAUPHIN        LGT RAIN  57  55  94 NE16G22   30.21S
ISLAND LAKE    LGT RAIN  52  50  93 NE8       30.24R FOG
PILOT MOUND      N/A     61  55  82 N10         N/A
THE PAS        PTCLDY    61  50  67 NE10      30.28R
THOMPSON       MOCLDY    57  48  72 N9        30.31R
WINNIPEG       CLOUDY    61  59  94 N10       30.12R FOG
LYNN LAKE      CLOUDY    52  45  76 MISG      30.38R
CHURCHILL      CLOUDY    48  43  81 N13       30.38R
GILLAM         MOCLDY    52  45  76 N17G23    30.34R
$$
                ***SASKATCHEWAN***

CITY           SKY/WX    TMP DP  RH WIND       PRES   REMARKS
ESTEVAN        CLOUDY    64  54  68 NE13      30.16R
KINDERSLEY     CLOUDY    55  43  62 N15       30.29R
LLOYDMINSTER   PTSUNNY   55  39  54 N7        30.34R
PRINCE ALBERT  PTSUNNY   61  52  72 NE5       30.28R
REGINA         MOCLDY    63  52  67 E12G20    30.19S
YORKTON        CLOUDY    61  54  77 NE10      30.23R
N. BATTLEFORD  CLOUDY    57  48  72 N10       30.32S
LA RONGE       MOCLDY    61  48  63 N6        30.32S
SASKATOON      PTSUNNY   63  48  59 N8        30.28R
SWIFT CURRENT  CLOUDY    59  52  77 NE16G22   30.20S
$$
NOTE: THESE ARE AUTOMATED STATIONS WITH LIMITED QUALITY CONTROL
      "FAIR" INDICATES FEW OR NO CLOUDS BELOW 12,000 FEET WITH NO
      SIGNIFICANT WEATHER AND/OR OBSTRUCTIONS TO VISIBILITY.
      SKY/WX - SKY CONDITION AND SIGNIFICANT WEATHER.
      TMP - AIR TEMPERATURE.    DP   - DEWPOINT TEMPERATURE.
      RH  - RELATIVE HUMIDITY.  PRES - PRESSURE.
      HX  - HEAT INDEX.         WCI  - WIND CHILL INDEX.
$




U.S. Dept. of Commerce
NOAA National Weather Service
1325 East West Highway
Silver Spring, MD 20910
E-mail: w-nws.webmaster@noaa.gov
Page last modified: May 16, 2007
NATIONAL WEATHER SERVICE: for Safety, for Work, for Fun - FOR LIFE